Content
SEND FEEDBACK

Daily
Averages
Monthly
Summary
United States of America

ORANGEBURG, SOUTH CAROLINA


Home > North America > United States > South Carolina
Elevation: 195 feet     Latitude: 33 28N     Longitude: 080 51W

WEATHER
 
SELECT A DAY
Number of Records: 195,270;   Date Range: 3/20/97 - 12/18/14
 
SHARE

PRINT THIS DATA

[ ← Previous Day ]
WEATHER ALMANAC - DECEMBER 16, 2013
[ Next Day → ]
[ °C ]   °F
Weather ElementAverageHighLow
Temperature45.6 °F60.1 °F (3:53 pm)34 °F (5:53 am)
Dewpoint33 °F36 °F (7:53 pm)30 °F (6:53 am)
Humidity64.7 %89 % (5:53 am)35 % (3:53 pm)
Barometer30.19 in30.24 in (9:53 am)30.15 in (1:53 am)
Wind Speed4.6 mph11.5 mph (1:53 pm)
Weather ElementAverage
Visibility9.8 mi
Wind DirectionSSW (191.3 °)

Weather ElementTotal
Precipitation---
Heating Degree Days18 (Base 65)
Averaged from 23 records on December 16, 2013
WEATHER CONDITIONS BREAKOUT
WIND DIRECTION BREAKOUT
WEATHER BY HOUR - DECEMBER 16, 2013
[ °C ]   °F
Local TimeTemperatureDewpointHumidityBarometerVisibilityWind DirectionWind SpeedGust SpeedPrecipitationEventsConditions
1:53 AM37.0 °F33.1 °F86 %30.15 in10.0 miCalmClear
2:53 AM37.0 °F33.1 °F86 %30.16 in10.0 miNW (310°)3.5 mphClear
3:53 AM36.0 °F32.0 °F86 %30.17 in10.0 miWNW (290°)4.6 mphClear
4:53 AM35.1 °F30.9 °F85 %30.17 in10.0 miWNW (290°)3.5 mphClear
5:53 AM34.0 °F30.9 °F89 %30.18 in10.0 miCalmClear
6:53 AM34.0 °F30.0 °F85 %30.19 in9.0 miNW (320°)3.5 mphClear
7:53 AM34.0 °F30.0 °F85 %30.22 in8.0 miNW (310°)5.8 mphClear
8:53 AM37.9 °F30.9 °F76 %30.22 in9.0 miNW (310°)3.5 mphClear
9:53 AM43.0 °F33.1 °F68 %30.24 in10.0 miCalmClear
10:53 AM51.1 °F33.1 °F50 %30.23 in10.0 miWest (280°)4.6 mphClear
11:53 AM54.0 °F34.0 °F47 %30.21 in10.0 miWest (260°)10.4 mphClear
12:53 PM55.9 °F34.0 °F44 %30.18 in10.0 miWSW (250°)10.4 mphClear
1:53 PM57.9 °F33.1 °F39 %30.17 in10.0 miWSW (240°)11.5 mphClear
2:53 PM59.0 °F33.1 °F38 %30.16 in10.0 miSW (230°)6.9 mphClear
3:53 PM60.1 °F32.0 °F35 %30.16 in10.0 miSW (230°)10.4 mphClear
4:53 PM57.0 °F34.0 °F42 %30.17 in10.0 miSW (220°)5.8 mphClear
5:53 PM53.1 °F34.0 °F48 %30.18 in10.0 miSW (220°)4.6 mphClear
6:53 PM50.0 °F35.1 °F57 %30.19 in10.0 miSSW (210°)4.6 mphClear
7:53 PM48.0 °F36.0 °F63 %30.20 in10.0 miSW (220°)5.8 mphClear
8:53 PM46.0 °F35.1 °F66 %30.20 in10.0 miSSW (210°)5.8 mphClear
9:53 PM44.1 °F35.1 °F71 %30.22 in10.0 miCalmClear
10:53 PM43.0 °F34.0 °F71 %30.22 in10.0 miCalmClear
11:53 PM42.1 °F33.1 °F70 %30.22 in10.0 miCalmClear
Hourly data recorded from KOGB, located miles away from Orangeburg, South Carolina







STORIES FROM OUR PARTNERS